PDT,Max TemperatureF,Mean TemperatureF,Min TemperatureF,Max Dew PointF,MeanDew PointF,Min DewpointF,Max Humidity, Mean Humidity, Min Humidity, Max Sea Level PressureIn, Mean Sea Level PressureIn, Min Sea Level PressureIn, Max VisibilityMiles, Mean VisibilityMiles, Min VisibilityMiles, Max Wind SpeedMPH, Mean Wind SpeedMPH, Max Gust SpeedMPH,PrecipitationIn, CloudCover, Events, WindDirDegrees
2012-9-1,73,60,46,50,48,45,94,67,41,30.16,30.11,30.03,10,10,10,13,5,,0.00,3,Rain,221
2012-9-2,68,55,42,50,46,41,93,69,44,30.22,30.17,30.13,10,10,10,12,4,,0.00,2,Rain,201
2012-9-3,73,58,44,52,48,41,100,72,41,30.19,30.16,30.12,10,9,0,10,4,,0.00,3,Fog-Rain,50
2012-9-4,76,60,45,51,48,43,90,63,36,30.22,30.17,30.12,10,10,10,12,4,,0.00,0,,43
2012-9-5,80,62,45,54,49,43,91,63,34,30.11,30.02,29.93,10,10,10,12,4,,0.00,0,,53
2012-9-6,82,66,49,54,49,46,92,61,30,30.06,30.01,29.96,10,10,7,10,5,,0.00,0,,46
2012-9-7,88,68,48,52,46,40,89,51,18,30.14,30.08,30.03,10,10,10,9,4,,0.00,0,,50
2012-9-8,77,64,51,57,51,44,79,65,47,30.04,29.99,29.94,10,10,10,15,6,,0.00,2,,231
2012-9-9,66,62,57,54,50,48,88,68,56,30.03,30.01,29.99,10,10,10,16,8,21,0.00,8,,171
2012-9-10,68,57,48,55,46,37,94,65,35,30.23,30.09,29.98,10,10,6,15,10,22,0.01,4,Rain,208
2012-9-11,67,52,39,45,40,34,93,61,34,30.32,30.29,30.25,10,10,10,10,6,,0.00,1,,22
2012-9-12,71,54,37,45,41,34,86,59,29,30.35,30.30,30.23,10,10,10,14,6,18,0.00,0,,22
2012-9-13,82,60,40,46,41,37,91,51,22,30.23,30.13,30.05,10,10,10,8,4,,0.00,0,,57
2012-9-14,80,62,44,51,45,40,82,55,28,30.09,30.06,30.01,10,10,10,6,3,,0.00,0,,81
2012-9-15,73,60,46,51,47,42,88,66,36,30.18,30.15,30.08,10,10,10,6,4,,0.00,0,,224
2012-9-16,74,58,42,51,47,41,96,71,40,30.23,30.18,30.13,10,10,10,10,4,,0.00,0,,89
2012-9-17,79,62,46,53,48,44,92,64,34,30.13,30.08,30.01,10,10,10,8,3,,0.00,0,,23
2012-9-18,83,65,47,56,48,40,89,63,22,30.11,30.05,30.02,10,10,9,12,4,,0.00,0,,217
2012-9-19,74,62,51,54,52,48,100,88,47,30.17,30.14,30.06,10,5,1,7,3,,0.00,6,,245
2012-9-20,68,60,52,55,53,52,100,94,58,30.13,30.09,30.06,10,3,0,9,4,,0.00,7,Fog,257
2012-9-21,62,58,54,54,53,51,97,84,68,30.16,30.13,30.12,10,10,10,9,5,,0.00,8,,163
2012-9-22,67,58,47,52,50,44,88,73,49,30.17,30.15,30.13,10,10,10,7,3,,0.00,6,,9
2012-9-23,67,54,42,48,45,40,95,73,48,30.17,30.15,30.12,10,10,10,8,3,,0.00,0,,110
2012-9-24,70,56,43,51,47,41,93,71,49,30.16,30.13,30.09,10,10,10,9,4,,0.00,1,,221
2012-9-25,65,56,47,55,51,46,94,81,58,30.16,30.13,30.10,10,10,8,7,3,,0.00,7,,254
2012-9-26,67,54,40,52,45,39,100,90,48,30.14,30.11,30.06,10,4,0,8,3,,0.00,3,Fog,129
2012-9-27,73,56,40,52,46,38,100,85,41,30.09,30.05,29.96,10,6,0,9,2,,0.00,3,Fog,88
2012-9-28,80,65,50,56,49,41,86,61,26,30.04,29.97,29.95,10,10,10,10,3,,0.00,3,,211
2012-9-29,68,61,51,57,52,38,95,80,34,30.30,30.16,30.03,10,9,2,10,4,,0.01,6,,222
2012-9-30,68,54,39,46,41,37,93,65,35,30.42,30.37,30.32,10,10,10,12,5,,0.00,0,,78